Location: Racine
(42.4703°N, 93.3294°W)
Time: 03:50:40
(UTC+00:00)

Daily predictions for brighter satellites

Satellite Brightness Start Highest point End
(mag) Time Altitude Azimuth Time Altitude Azimuth Time Altitude Azimuth
ATLAS 2AS CENTAUR R/B 3.4 01:58:53 10° S 02:06:08 42° ESE 02:13:20 10° NE
NOSS 3-2 (C) 4.2 02:00:54 10° NW 02:08:36 89° NE 02:17:18 10° SE
Resurs 01 Rocket 2.4 02:09:54 10° SE 02:13:55 35° ENE 02:17:58 10° N
Cosmos 1437 3.8 02:14:27 10° NNE 02:16:45 23° ENE 02:19:02 10° SE
Cosmos 1408 2.7 02:13:43 10° S 02:17:22 83° W 02:21:01 10° N
NOSS 2 (A) 4.3 02:15:52 10° NNW 02:18:29 57° NE 02:20:50 10° SE
Cosmos-2242 3.5 02:16:26 10° NNW 02:20:40 62° W 02:24:51 10° S
Cosmos 1825 Rocket 3.9 02:17:24 10° SSW 02:21:43 71° W 02:26:03 10° N
RESURS DK-1 3.9 02:19:56 10° SE 02:22:39 17° ESE 02:25:22 10° ENE
Cosmos 2098 Rocket 4.3 02:22:58 10° ESE 02:24:02 11° E 02:25:06 10° ENE
ATLAS 3B R/B 4.1 02:19:27 10° NNW 02:25:27 29° NE 02:31:37 10° E
BREEZE-M DEB (TANK) 4.2 02:22:52 10° NW 02:25:40 39° NNE 02:32:29 10° E
CENTAUR R/B 3.6 02:19:11 10° NW 02:27:25 66° WSW 02:36:14 10° SSE
USA 267 4.2 02:23:05 10° ENE 02:28:07 23° ESE 02:33:08 10° S
Cosmos 1633 4.0 02:29:08 11° SE 02:31:38 20° E 02:34:19 10° NE
ISS -1.1 02:29:57 10° NW 02:32:17 17° N 02:34:37 10° NE
SPOT 1/Viking Rocket 4.3 02:28:27 10° SE 02:33:08 36° ENE 02:37:52 10° N
Meteor 2-2 Rocket 4.4 02:28:17 10° N 02:34:05 61° ENE 02:39:43 10° SSE
Cosmos 1634 Rocket 4.2 02:28:14 10° N 02:34:33 80° W 02:40:46 10° S
Cosmos 44 Rocket 3.7 02:30:26 10° S 02:35:21 47° ESE 02:40:21 10° NE
SL-16 R/B 4.4 02:37:00 10° NNE 02:38:38 11° NE 02:40:16 10° ENE
ERS-2 2.1 02:36:08 10° NNE 02:39:48 87° W 02:43:25 10° SSW
ARIANE 5 R/B 4.2 02:38:33 11° ESE 02:41:33 21° ENE 02:44:52 10° NNE
Ariane Rocket 3.2 02:39:03 10° S 02:44:07 74° WSW 02:49:13 10° NNW
SPOT 5 4.4 02:44:08 11° ESE 02:46:41 18° ENE 02:49:37 10° NNE
CZ-2C R/B 4.1 02:45:10 10° NNE 02:49:28 40° E 02:53:38 10° SSE
Cosmos 1242 Rocket 2.6 02:46:41 10° NNW 02:50:18 76° W 02:53:50 10° S
OAO 2 Rocket 4.1 02:45:48 10° WSW 02:50:18 33° S 02:53:27 17° SE
Cosmos 783 Rocket 4.4 02:45:38 10° S 02:50:46 68° ESE 02:55:57 10° NNE
Cosmos 2221 2.5 02:48:21 10° N 02:52:37 63° E 02:56:11 14° SSE
IRIS 4.3 02:50:03 10° W 02:52:42 60° S 02:55:21 17° ESE
USA 307 4.0 02:50:33 10° WNW 02:54:27 36° SW 02:57:40 14° SSE
Cosmos 371 Rocket 4.4 02:58:12 10° N 03:02:25 29° ENE 03:05:07 18° ESE
ERBS 3.3 03:00:54 10° NNW 03:03:54 34° NE 03:05:39 19° E
Cosmos 1697 Rocket 2.7 02:59:23 10° NNW 03:05:06 90° WNW 03:09:29 17° SSE
Terra 3.3 03:04:43 16° ESE 03:07:06 23° ENE 03:10:46 10° NNE
Hubble Space Telescope 3.0 03:06:44 10° SSW 03:07:16 11° S 03:07:16 11° S
IGS 5A 4.0 03:04:14 10° S 03:08:17 58° W 03:12:23 10° NNW
Cosmos 1606 2.6 03:05:15 10° N 03:09:00 68° E 03:11:14 23° SSE
USA 308 4.5 03:07:40 10° WNW 03:11:12 26° SW 03:13:51 14° S
Cosmos 2082 Rocket 2.1 03:05:45 10° SSW 03:11:19 70° ESE 03:16:56 10° NNE
Cosmos 2278 4.2 03:07:32 10° NNW 03:12:58 45° ENE 03:16:22 22° ESE
SPOT 3 Rocket 3.7 03:09:28 13° S 03:14:10 74° WSW 03:19:25 10° NNW
Cosmos 1833 Rocket 3.4 03:09:32 10° SW 03:15:04 56° WNW 03:20:38 10° NNE
BREEZE-M R/B 4.2 03:12:44 10° SSW 03:17:24 22° SSE 03:17:24 22° SSE
Cosmos 773 Rocket 4.0 03:13:14 10° SSW 03:18:28 84° WNW 03:23:41 10° NNE
Cosmos 1782 4.5 03:19:30 10° NNE 03:22:27 19° ENE 03:23:15 18° E
Cosmos 2151 3.1 03:23:49 28° SSE 03:25:44 51° E 03:29:53 10° NNE
Cosmos 2360 Rocket 4.4 03:26:46 10° NNE 03:29:01 12° NE 03:31:16 10° ENE
Centaur D AC-29 4.4 03:20:56 10° W 03:29:29 14° WSW 03:33:47 10° SSW
Cosmos 1842 Rocket 4.4 03:28:45 10° NNW 03:33:04 48° W 03:36:31 15° SSW
GP-B 3.4 03:29:03 10° NNE 03:33:22 48° E 03:34:52 34° SE
Cosmos 1092 Rocket 4.1 03:29:20 21° SSE 03:33:25 58° E 03:39:35 10° NNE
BREEZE-M DEB (TANK) 4.2 03:33:36 10° W 03:35:55 24° NNW 03:37:31 10° NE
Meteor 2-3 Rocket 3.8 03:36:27 26° SSE 03:39:33 58° E 03:45:08 10° NNE
Cosmos 2369 3.9 03:34:28 10° NNW 03:40:05 67° WSW 03:43:19 26° S
ERS-1 Rocket 3.0 03:40:52 32° SSE 03:43:09 70° ENE 03:48:09 10° N
Cosmos 1076 Rocket 4.1 03:39:35 13° SSW 03:43:24 56° W 03:47:42 10° N
Cosmos 1151 Rocket 4.2 03:40:14 10° NNE 03:43:59 28° ENE 03:44:42 26° E
Spot 2 Rocket 3.5 03:41:46 27° S 03:44:35 79° WSW 03:49:44 10° NNW
Resurs 01 Rocket 3.7 03:47:02 10° SW 03:50:29 22° W 03:53:57 10° NW
Okean 3 Rocket 4.4 03:50:13 32° E 03:50:31 32° E 03:54:31 10° NNE
BREEZE-M DEB (TANK) 2.9 03:47:11 10° WNW 03:50:32 76° NNE 03:55:45 22° ESE
Cosmos 1980 Rocket 2.2 03:45:36 10° NNW 03:51:13 75° WSW 03:53:52 32° S
BREEZE M DEB (TANK) 3.5 03:48:50 10° SW 03:52:10 61° SE 04:09:31 10° ENE
Cosmos 2026 Rocket 4.0 03:49:09 28° SSE 03:52:40 67° E 03:58:55 10° NNE
ATLAS 2AS CENTAUR R/B 3.8 03:49:21 10° WSW 03:57:03 53° NW 04:04:35 10° NNE
Cosmos 1627 Rocket 4.5 03:54:38 27° S 03:58:18 76° E 04:04:38 10° N
Cosmos 2322 Rocket 3.4 03:53:47 10° N 03:58:41 30° NE 04:00:59 22° E
Cosmos 1538 Rocket 4.1 03:53:59 12° SSW 03:58:50 74° WNW 04:04:03 10° NNE
H-2A R/B 3.9 03:55:54 10° NNE 03:59:53 42° E 03:59:53 42° E
RESURS DK-1 3.6 03:56:21 10° SW 04:00:19 42° WNW 04:04:18 10° NNE
Cosmos 158 Rocket 3.8 03:58:13 27° SSW 04:01:04 84° ESE 04:06:20 10° NNE
Cosmos 1271 Rocket 2.7 03:58:46 10° N 04:02:43 68° E 04:03:10 62° ESE
ISS -2.2 04:06:48 10° NW 04:09:52 31° NNE 04:10:34 28° NE
USA 267 3.2 04:05:05 10° NE 04:11:41 87° SE 04:18:14 10° SW
Cosmos 1933 3.7 04:12:09 10° NNW 04:16:08 57° W 04:16:53 48° SW
ATLAS 3B R/B 2.8 04:09:44 10° NW 04:16:54 81° WSW 04:20:00 38° SSE
ARIANE 5 R/B 3.6 04:16:06 29° SW 04:17:43 40° W 04:21:57 10° NNW
Cosmos 2292 Rocket 4.4 04:16:19 45° SSE 04:18:03 69° E 04:25:01 10° NNE
SL-16 R/B 2.4 04:18:25 10° NNW 04:24:01 58° ENE 04:25:32 44° ESE
SPOT 5 3.4 04:23:22 35° SW 04:24:27 42° W 04:28:36 10° NNW
Cosmos 1408 Rocket 4.3 04:25:28 38° ENE 04:25:28 38° ENE 04:29:04 10° NNE
USA 276 4.2 04:22:37 10° NW 04:25:16 24° NNE 04:25:54 22° NNE
Cosmos 304 Rocket 3.6 04:21:16 10° NNW 04:26:05 83° WSW 04:26:50 64° S
Cosmos 2219 Rocket 4.5 04:23:26 10° NNE 04:26:11 14° NE 04:28:54 10° ENE
Cosmos 1553 Rocket 3.9 04:25:43 10° N 04:31:48 74° E 04:33:26 50° SSE
Cosmos 1655 Rocket 4.3 04:32:55 43° ESE 04:34:10 49° E 04:40:16 10° NNE
Cosmos 2266 Rocket 4.3 04:37:31 42° ESE 04:38:23 45° E 04:44:13 10° NNE
USA 234 3.6 04:41:01 29° ESE 04:44:26 61° NNE 04:50:53 10° NW
Terra 2.6 04:43:36 36° SW 04:44:35 41° W 04:49:05 10° NNW
COBE Rocket 4.2 04:44:51 46° ENE 04:44:58 46° ENE 04:49:25 10° N
Cosmos 923 Rocket 4.3 04:43:33 37° SW 04:45:37 66° WNW 04:50:57 10° NNE
Cosmos 1862 3.6 04:47:45 63° NNE 04:47:45 63° NNE 04:51:09 10° N
Cosmos 1515 Rocket 3.9 04:43:27 10° N 04:47:35 56° ENE 04:47:35 56° ENE
Meteor 2-16 Rocket 4.4 04:50:10 56° SE 04:51:11 66° E 04:57:13 10° NNE
Cosmos 1812 3.3 04:51:13 10° NNW 04:54:26 57° NW 04:54:26 57° NW
ALOS 2 4.0 04:56:16 28° ENE 04:56:16 28° ENE 04:59:55 10° N
Cosmos 1766 Rocket 4.4 04:56:00 41° WSW 04:56:41 44° WNW 05:00:55 10° N
Cosmos 1417 Rocket 4.4 04:51:54 10° N 04:58:16 84° W 04:59:44 56° S
Cosmos 1782 4.2 04:55:14 10° NNW 04:58:47 31° W 04:58:50 31° W
S3M 4.0 04:52:50 10° N 04:59:14 81° E 05:00:35 58° SSE
Cosmos 2056 Rocket 3.5 04:54:49 10° NNW 05:00:11 67° ENE 05:00:39 63° E
Cosmos 1833 4.3 05:07:05 57° ESE 05:07:05 57° ESE 05:12:39 10° NNE
Cosmos 2333 Rocket 3.5 05:03:04 10° N 05:08:02 30° NE 05:09:37 26° E
IRIDIUM 114 4.5 05:04:22 10° N 05:09:33 58° E 05:09:34 58° E
Cosmos 1328 Rocket 4.4 05:06:57 10° NNW 05:11:06 42° W 05:11:06 42° W
Gbstr 26 Del rocket 3.4 05:07:24 10° NW 05:10:48 56° N 05:10:48 56° N
Cosmos 2360 Rocket 2.2 05:08:32 10° NNW 05:14:09 66° ENE 05:14:45 61° E
IRIDIUM 103 4.3 05:13:30 10° N 05:18:43 71° E 05:18:43 71° E
Cosmos 1371 Rocket 4.0 05:15:46 10° NNW 05:21:09 73° WSW 05:21:15 73° WSW
Cosmos 1805 Rocket 4.3 05:31:03 47° NE 05:31:03 47° NE 05:34:27 10° NNE
IRIDIUM 106 4.3 05:31:47 10° N 05:36:58 79° W 05:36:58 79° W
Cosmos 1500 Rocket 4.3 05:42:38 49° NW 05:42:38 49° NW 05:46:23 10° N
Cosmos 2322 Rocket 2.8 05:37:34 10° NW 05:42:47 43° WSW 05:42:47 43° WSW
Cosmos 2285 Rocket 4.0 05:51:06 10° NNW 05:57:24 70° ENE 05:58:13 62° ESE
Cosmos 292 Rocket 4.3 05:53:05 10° NNW 05:56:55 52° WNW 05:56:55 52° WNW
Cosmos 2228 Rocket 3.9 05:56:42 10° NNW 06:00:03 45° NW 06:00:03 45° NW
Cosmos 2315 Rocket 4.1 05:55:31 10° NNW 06:01:44 63° W 06:02:23 59° WSW
Cosmos 1048 Rocket 4.1 06:04:18 65° NE 06:04:18 65° NE 06:08:47 10° NNE
Meteor 1-27 Rocket 4.2 05:59:28 10° NNW 06:04:52 49° W 06:04:57 49° W
Cosmos 2333 4.1 05:59:57 10° NNW 06:05:26 84° WNW 06:05:26 84° WNW
COSMOS 2428 3.0 06:00:05 10° NNW 06:05:41 56° ENE 06:06:19 53° E
SL-16 R/B 3.9 06:03:34 10° NW 06:07:23 20° W 06:07:23 20° W
Cosmos 2219 Rocket 2.1 06:05:31 10° NNW 06:11:09 75° ENE 06:11:15 74° ENE
Cosmos 494 Rocket 4.2 06:13:22 60° ENE 06:13:22 60° ENE 06:17:45 10° NNE
Thor Agena Rocket 3.7 06:10:50 10° NNE 06:15:18 63° ENE 06:15:18 63° ENE
Cosmos 1666 Rocket 4.3 06:17:56 51° NNE 06:17:56 51° NNE 06:21:17 10° N
Cosmos 1633 Rocket 3.9 06:18:12 47° NNE 06:18:12 47° NNE 06:21:25 10° NNE
Sich 1 4.1 06:22:40 41° NW 06:22:40 41° NW 06:26:04 10° N
SL-08 ROCKET BODY 4.2 06:24:29 81° SSW 06:24:49 87° W 06:30:57 10° N
USA 234 3.8 06:28:20 41° WSW 06:28:20 41° WSW 06:33:45 10° WNW
COSMOS 2455 2.9 06:27:35 62° W 06:28:20 69° WNW 06:34:22 10° NNE
Cosmos 1666 4.5 06:31:32 29° NE 06:31:32 29° NE 06:33:42 10° NNE
SL-08 R/B 4.3 06:30:04 77° SSW 06:30:34 88° W 06:36:49 10° N
ALOS 2 4.4 06:33:40 23° WNW 06:33:40 23° WNW 06:36:10 10° NW
Cosmos 1452 Rocket 4.0 06:27:57 10° NNW 06:32:21 51° WNW 06:32:21 51° WNW
Cosmos 489 Rocket 4.5 06:32:46 64° WSW 06:33:34 72° WNW 06:39:57 10° NNE
CZ-3B R/B 3.4 06:29:57 10° NW 06:33:35 33° NW 06:33:35 33° NW
NOSS 0 Rocket 4.3 06:30:57 10° NNW 06:37:07 59° ENE 06:38:37 47° ESE
Cosmos 1862 Rocket 4.3 06:37:24 10° N 06:40:41 50° N 06:40:41 50° N
Meteor 1-18 Rocket 4.2 06:38:07 10° NNW 06:43:59 75° W 06:44:05 75° WSW
Geosat 4.2 06:45:59 60° WNW 06:45:59 60° WNW 06:50:18 10° NNW
Cosmos 1745 Rocket 3.8 06:45:31 75° SSE 06:46:04 85° E 06:52:21 10° N
ATLAS 5 CENTAUR R/B 2.7 06:46:22 10° NNW 06:51:56 61° NE 06:54:21 37° ESE
Cosmos 2333 Rocket 2.9 06:47:07 10° NW 06:51:37 40° W 06:51:37 40° W
Lacrosse 5 3.3 06:57:56 28° E 06:57:56 28° E 07:00:59 10° ENE
Meteor 1-11 Rocket 4.4 06:56:39 41° ESE 06:57:03 42° E 07:02:13 10° NNE
Cosmos 2360 Rocket 4.1 06:53:55 10° WNW 06:56:30 17° W 06:56:30 17° W
Cosmos 1980 4.0 06:55:43 10° NNW 07:01:20 60° ENE 07:02:27 50° ESE
Resurs 1-4 Rocket 3.4 06:58:23 10° NE 07:02:58 29° E 07:03:26 28° ESE
SL-16 R/B 3.8 07:00:09 20° ESE 07:03:36 34° ENE 07:09:04 10° N
Cosmos 1110 Rocket 4.4 06:59:48 10° NNW 07:04:23 53° WNW 07:04:23 53° WNW
Nadezhda 1 Rocket 4.0 07:02:53 10° NNW 07:09:15 67° W 07:09:56 62° SW
CZ-4 R/B 3.9 07:11:25 10° NNE 07:16:20 74° E 07:16:20 74° E
NOSS 3-1 (C) 4.4 07:10:20 10° NW 07:17:44 46° WSW 07:18:38 45° SW
ARGOS Delta rocket 3.8 07:13:59 10° NNE 07:18:22 75° NNE 07:18:22 75° NNE
Cosmos 2297 Rocket 2.0 07:18:52 75° SSE 07:19:12 79° ESE 07:24:54 10° NNE
Cosmos 2242 Rocket 3.9 07:16:14 10° N 07:20:03 65° N 07:20:03 65° N
Cosmos 2237 Rocket 2.1 07:19:54 10° NNW 07:25:36 87° ENE 07:26:22 68° SSE
USA 229 DEB 4.0 07:22:00 10° NW 07:29:16 58° WSW 07:30:34 52° SSW
Meteor 1-13 Rocket 4.2 07:23:25 10° N 07:29:17 85° E 07:30:08 66° SSE
USA 229 4.0 07:22:06 10° NW 07:29:21 59° WSW 07:30:42 52° SSW
ASTEX 1 3.3 07:29:44 76° ESE 07:29:54 77° E 07:34:48 10° N
Cosmos 2227 Rocket 2.1 07:29:32 68° SSE 07:30:02 72° ESE 07:35:41 10° NNE
ADEOS Rocket 3.9 07:29:11 21° ESE 07:32:20 38° ENE 07:37:22 10° N
Cosmos 1743 3.6 07:39:45 46° ENE 07:39:45 46° ENE 07:42:52 10° NNE
Cosmos 1869 Rocket 3.6 07:39:47 79° NNE 07:39:47 79° NNE 07:44:03 10° N
CZ-2D R/B 2.3 07:36:07 10° NNE 07:41:28 63° ESE 07:42:21 54° SE
Cosmos 2181 Rocket 4.0 07:35:08 10° N 07:41:32 82° E 07:43:19 50° SSE
Cosmos 1340 Rocket 4.0 07:43:12 33° NW 07:43:12 33° NW 07:46:01 10° N
Cosmos 1269 Rocket 4.3 07:42:11 51° W 07:42:42 53° WNW 07:47:53 10° N
ADEOS II 3.4 07:38:35 10° NE 07:43:13 31° E 07:44:44 26° SE
SL-16 R/B 3.0 07:43:57 10° NNW 07:49:26 49° ENE 07:53:48 16° SE
COSMOS 2428 4.3 07:45:18 10° NW 07:48:18 20° W 07:48:18 20° W
NOSS 3-1 (A) 4.4 07:42:15 10° NW 07:49:40 47° WSW 07:51:23 42° SSW
Meteor 1-23 Rocket 4.3 07:46:25 10° N 07:52:08 74° E 07:53:54 45° SSE
Helios 1A 3.6 07:53:57 45° WNW 07:53:57 45° WNW 07:57:16 10° NNW
Cosmos 2219 Rocket 4.2 07:51:17 10° WNW 07:52:56 14° W 07:52:56 14° W
Okean 3 3.6 07:52:13 10° NNW 07:56:06 66° NW 07:56:06 66° NW
Cosmos 2263 Rocket 4.0 07:54:29 17° SE 07:56:48 21° E 08:00:58 10° NE
Okean 1-7 4.1 07:54:46 10° NNW 07:57:46 32° WNW 07:57:46 32° WNW
CZ-4C R/B 4.3 07:53:07 10° NNW 07:59:40 38° NE 08:07:12 10° ESE
Cosmos 2221 Rocket 4.4 07:55:41 10° N 08:00:07 49° ENE 08:01:25 37° SE
Timation 1 Rocket 4.2 07:58:54 56° SSW 08:00:17 86° WNW 08:06:19 10° NNE
Cosmos 1992 Rocket 3.9 07:59:22 10° NNW 08:04:38 89° WSW 08:05:56 52° SSE
NOSS 2-2 (D) 4.5 07:59:16 10° NW 08:04:53 88° SW 08:12:48 10° SSE
Cosmos 2344 4.4 08:04:49 26° SSE 08:08:11 37° ESE 08:14:57 10° NE
Meteor 1-29 4.4 08:07:52 10° NE 08:10:46 30° E 08:10:46 30° E
Helios 1B rocket 2.3 08:10:34 10° NNE 08:14:41 82° ESE 08:14:58 76° SSE
UNK 3.6 08:14:59 64° SSW 08:15:35 74° WSW 08:20:17 10° NNW
Cosmos 2219 3.9 08:16:32 35° WSW 08:18:14 45° WNW 08:23:45 10° NNE
Cosmos 1238 Rocket 3.9 08:18:43 27° E 08:18:55 27° E 08:21:45 10° NNE
Meteor 2-12 Rocket 4.4 08:16:52 43° S 08:19:02 89° WNW 08:25:13 10° N
Cosmos 1842 3.6 08:17:45 10° N 08:21:35 58° E 08:22:21 47° SE
Nadezhda 3 Rocket 4.4 08:15:36 10° N 08:21:56 63° E 08:26:34 19° SSE
BREEZE-M DEB (TANK) 4.3 08:30:27 26° ESE 08:30:27 26° ESE 08:31:46 10° ENE
Cosmos 2084 Rocket 4.0 08:25:50 10° NW 08:29:02 41° W 08:29:02 41° W
Timation 2 Rocket 4.3 08:31:10 34° WSW 08:33:26 51° WNW 08:39:22 10° NNE
IDEFIX/ARIANE 42P 3.2 08:28:39 10° NNE 08:33:41 48° E 08:36:25 25° SSE
ATLAS 5 CENTAUR R/B 3.4 08:31:30 10° WNW 08:35:47 27° WSW 08:35:47 27° WSW
Cosmos 1378 Rocket 4.0 08:33:12 10° N 08:37:32 59° E 08:39:54 25° SSE
Cosmos 2251 Rocket 3.6 08:36:33 42° SW 08:38:11 63° WNW 08:43:27 10° NNE
Cosmos 2082 3.8 08:36:22 39° SW 08:38:26 64° WNW 08:44:09 10° NNE
Lacrosse 5 2.5 08:37:07 29° W 08:39:18 48° NW 08:44:14 10° NE
Resurs 1-4 Rocket 2.9 08:37:57 10° N 08:42:49 37° WNW 08:44:30 30° WSW
Cosmos 1908 Rocket 4.2 08:42:20 26° SSE 08:44:26 49° E 08:48:38 10° NNE
Cosmos 1356 Rocket 3.7 08:44:46 35° SSE 08:46:13 59° E 08:50:10 10° NNE
Cosmos 2184 Rocket 4.3 08:44:11 34° SW 08:46:40 53° WNW 08:52:49 10° N
SL-16 R/B 3.0 08:45:15 33° SW 08:47:04 41° W 08:52:52 10° NNW
Cosmos 1733 Rocket 3.5 08:50:26 40° WSW 08:51:27 48° WNW 08:55:47 10° N
Cosmos 1295 Rocket 4.4 08:49:06 29° SSW 08:52:24 80° W 08:58:33 10° N
BREEZE-M DEB (TANK) 4.1 08:45:45 23° SW 08:53:05 79° SSE 08:56:54 10° ENE
Cosmos 2154 Rocket 4.0 08:50:40 31° SSW 08:53:45 68° W 08:59:58 10° N
Cosmos 1190 Rocket 4.5 08:51:32 25° S 08:54:31 57° ESE 08:59:43 10° NNE
SL-8 R/B 3.7 08:53:11 39° SW 08:54:48 66° SSE 08:59:35 10° ENE
DELTA 2 DEB (DPAF) 4.0 08:53:13 24° SSE 08:55:53 89° W 09:00:20 10° NNW
Cosmos 1140 Rocket 3.6 08:54:55 29° S 08:57:37 76° ESE 09:02:52 10° NNE
Meteor 1-21 4.2 08:55:22 10° NNW 09:01:10 81° W 09:05:54 16° S
Cosmos 2297 Rocket 4.1 09:00:40 12° W 09:03:55 18° NW 09:07:49 10° N
MSX 4.0 09:00:08 10° NNE 09:05:52 71° ESE 09:10:10 18° S
Okean 2 3.3 09:02:55 10° NNW 09:07:04 68° W 09:09:08 28° S
Cosmos 44 4.2 09:02:17 10° NNW 09:07:27 54° NE 09:12:18 10° SE
CZ-4C R/B 3.7 09:04:26 12° SSE 09:08:11 69° ENE 09:12:26 10° N
BREEZE-M DEB (TANK) 3.1 09:04:40 10° WNW 09:08:17 52° N 09:11:07 10° E
Cosmos 2237 Rocket 4.1 09:06:25 10° WNW 09:08:09 13° W 09:08:09 13° W
ARIANE 5 R/B 3.3 09:05:56 10° NNE 09:10:58 50° E 09:15:41 12° S
Cosmos 2227 Rocket 4.0 09:11:21 12° W 09:14:40 20° NW 09:18:45 10° N
Cosmos 1603 4.2 09:11:00 10° NNW 09:16:35 61° ENE 09:22:09 10° SE
Meteor 1-28 Rocket 3.7 09:16:26 33° SW 09:17:17 37° W 09:20:47 10° NNW
BREEZE-M DEB (TANK) 4.5 09:15:41 12° WNW 09:17:23 24° N 09:20:19 10° ENE
ADEOS Rocket 3.7 09:16:08 24° SW 09:17:58 28° W 09:22:41 10° NW
Milstar 3 4.4 09:15:44 14° S 09:18:02 16° SSE 09:21:54 10° SE
CZ-2D R/B 3.8 09:17:18 10° NNW 09:21:01 19° WNW 09:23:40 14° W
ADEOS II 3.0 09:18:10 10° N 09:22:53 35° WNW 09:25:40 21° WSW
IRS-1D 4.1 09:21:41 10° N 09:26:20 41° WNW 09:29:10 21° SW
Cosmos 1782 Rocket 3.6 09:23:31 16° S 09:26:55 79° E 09:31:18 10° N
Cosmos 1805 4.2 09:26:47 10° SSE 09:30:30 46° E 09:34:15 10° NNE
SL-8 Rocket 4.0 09:24:57 13° S 09:30:36 87° W 09:36:48 10° N
Cosmos 2227 4.2 09:27:46 20° SSW 09:31:45 78° WNW 09:37:24 10° NNE
IRS-1C 4.1 09:26:29 10° NNE 09:31:51 86° WNW 09:36:27 14° SSW
Iridium 4 Rocket 4.4 09:26:56 10° NNW 09:31:57 36° W 09:35:31 18° SW
SL-16 R/B 3.3 09:28:43 10° NW 09:33:12 25° WSW 09:35:34 19° SW
Cosmos 2366 rocket 4.1 09:27:03 10° S 09:33:24 81° E 09:39:46 10° N
Cosmos 1975 4.3 09:33:02 19° WSW 09:34:30 23° WNW 09:37:49 10° NNW
KORONAS-FOTON 3.9 09:31:37 10° N 09:35:32 81° E 09:39:27 10° S
ATLAS CENTAUR R/B 1.1 09:33:49 22° SSW 09:36:06 82° ESE 09:40:03 10° NE
NOSS 3-3 (A) 3.9 09:32:01 20° SW 09:36:09 72° NW 09:42:39 10° NNE
NOSS 3-3 (C) 3.9 09:32:09 20° SW 09:36:15 73° NW 09:42:43 10° NNE
Cosmos 676 Rocket 4.1 09:32:40 15° SSW 09:37:09 82° ESE 09:42:31 10° NNE
Cosmos 2263 Rocket 2.5 09:36:11 19° SW 09:40:14 57° WNW 09:45:52 10° NNE
Cosmos 1707 3.5 09:39:31 10° NNW 09:42:58 32° W 09:45:07 18° SW
Cosmos 1461 4.0 09:41:30 17° WSW 09:44:36 38° NW 09:48:47 10° NNE
Cosmos 407 Rocket 4.3 09:41:19 17° SW 09:44:53 39° WNW 09:49:50 10° N
CZ-4C R/B 3.1 09:41:21 10° NW 09:48:46 65° WSW 09:57:11 10° SSE
ALOS 3.7 09:44:46 10° NNE 09:49:06 37° E 09:53:25 10° SSE
Spot 1 4.2 09:47:37 10° S 09:51:39 46° W 09:55:36 10° NNW
GEOS 3 Rocket 3.6 09:46:39 10° SE 09:52:01 82° SW 09:57:23 10° NW
Meteor 2-20 4.4 09:46:31 10° NNW 09:52:38 75° W 09:58:46 10° S
Cosmos 2341 Rocket 4.5 09:51:38 13° SW 09:56:55 44° WNW 10:02:50 10° N
Cosmos 1733 3.2 09:53:25 10° S 09:57:15 85° E 10:01:07 10° N
Cosmos 2218 Rocket 4.1 09:52:52 10° SSW 09:59:12 64° W 10:05:30 10° N
Cosmos 1766 3.6 09:55:39 10° S 09:59:29 67° E 10:03:22 10° NNE
SL-08 R/B 3.4 09:54:38 10° S 09:59:31 64° WSW 10:04:28 10° NNW
Cosmos 1763 Rocket 4.1 09:54:25 10° NNW 09:59:43 62° ENE 10:04:56 10° SSE
USA 281 4.1 09:57:37 10° SE 10:03:58 55° ENE 10:10:21 10° NNW
Cosmos 1727 Rocket 4.1 09:59:16 10° N 10:05:33 89° E 10:11:50 10° S
Cosmos 1300 Rocket 3.5 10:03:00 10° S 10:07:19 87° W 10:11:42 10° N
USA 290 2.8 10:05:24 10° NNW 10:08:37 60° ENE 10:11:49 10° SSE
Meteor 1-15 Rocket 4.4 10:02:48 10° S 10:08:44 90° E 10:14:39 10° N
Cosmos 1975 Rocket 3.4 10:08:10 10° NNW 10:12:22 45° W 10:16:31 10° SSW
Cosmos 1484 Rocket 4.3 10:09:12 10° NNE 10:12:54 37° E 10:16:37 10° SSE
IDEFIX/ARIANE 42P 4.0 10:08:59 10° NNW 10:12:55 22° WNW 10:16:51 10° WSW
Cosmos 1943 3.4 10:07:32 10° NW 10:13:01 49° WSW 10:18:27 10° S
Cosmos 1340 3.4 10:11:26 10° NNW 10:14:50 33° W 10:18:12 10° SSW
CZ-2C R/B 2.2 10:12:11 10° N 10:16:45 73° WNW 10:21:21 10° SSW
SL-24 R/B - RUBIN 2 3.6 10:12:58 10° NW 10:17:54 72° WSW 10:22:20 10° SSE
Cosmos 1626 2.3 10:15:18 10° NNW 10:18:53 49° W 10:22:25 10° S
Cosmos 1400 Rocket 3.2 10:16:47 10° SSW 10:20:29 44° WNW 10:24:15 10° N
Cosmos 2344 4.2 10:15:15 10° WSW 10:22:21 45° NW 10:29:54 10° NNE
Lacrosse 5 4.1 10:19:51 10° WNW 10:23:22 18° NNW 10:26:53 10° NNE
Cosmos 1674 3.9 10:22:00 10° NW 10:25:08 24° W 10:28:15 10° SW
USA 215 3.4 10:21:06 10° NE 10:27:40 82° NW 10:34:11 10° SW
Cosmos 1315 Rocket 3.4 10:24:03 10° S 10:28:06 62° E 10:32:07 10° NNE
Okean 1 Rocket 4.4 10:24:32 10° SSE 10:28:40 42° E 10:32:52 10° NNE
SL-19 R/B 4.4 10:26:39 10° SSE 10:32:15 81° WSW 10:38:09 10° NNW
